0 HST 1 20580U 90037B 25299.23101267 .00009097 00000-0 32384-3 0 9991 2 20580 28.4678 235.6409 0002167 65.9954 294.0868 15.27150496752725 0 ISS (ZARYA) 1 25544U 98067A 25299.20038895 .00014735 00000-0 27050-3 0 9999 2 25544 51.6346 17.8374 0004636 339.5768 20.5035 15.49479093535488 0 CXO 1 25867U 99040B 25301.66016621 .00000932 00000-0 00000-0 0 9993 2 25867 52.1339 124.2561 8214465 310.6062 0.1647 0.37799947 16440